| time (UTC) | temp F | wind direction | speed MPH | gust MPH | rain 1hr in | rain 24hr in | rain mn in | humidity % | barometer mb |
| 20260905232852 | 70 | 342 | 0.0 | 0.0 | 0.00 | 0.00 | 0.00 | 57 | 1016.3 |
| 20260905232349 | 70 | 307 | 2.0 | 2.0 | 0.00 | 0.00 | 0.00 | 56 | 1016.1 |
| 20260905231844 | 70 | 48 | 1.0 | 1.0 | 0.00 | 0.00 | 0.00 | 58 | 1016.4 |
| 20260905231338 | 70 | 84 | 2.0 | 3.0 | 0.00 | 0.00 | 0.00 | 58 | 1016.4 |
| 20260905230836 | 70 | 317 | 1.0 | 2.0 | 0.00 | 0.00 | 0.00 | 60 | 1016.3 |
| 20260905230333 | 69 | 310 | 1.0 | 1.0 | 0.00 | 0.00 | 0.00 | 59 | 1016.3 |
| 20260905225832 | 70 | 302 | 3.0 | 3.0 | 0.00 | 0.00 | 0.00 | 59 | 1016.4 |
| 20260905225327 | 69 | 300 | 1.0 | 1.0 | 0.00 | 0.00 | 0.00 | 60 | 1016.5 |
| 20260905224822 | 69 | 304 | 3.0 | 3.0 | 0.00 | 0.00 | 0.00 | 60 | 1016.7 |
| 20260905224318 | 69 | 304 | 0.0 | 0.0 | 0.00 | 0.00 | 0.00 | 61 | 1016.6 |
| 20260905223812 | 70 | 316 | 2.0 | 2.0 | 0.00 | 0.00 | 0.00 | 59 | 1016.6 |
| 20260905223310 | 70 | 282 | 1.0 | 1.0 | 0.00 | 0.00 | 0.00 | 57 | 1016.6 |
| 20260905222805 | 69 | 304 | 0.0 | 0.0 | 0.00 | 0.00 | 0.00 | 62 | 1016.6 |
| 20260905222306 | 70 | 310 | 3.0 | 3.0 | 0.00 | 0.00 | 0.00 | 57 | 1016.7 |
| 20260905221800 | 70 | 322 | 3.0 | 5.0 | 0.00 | 0.00 | 0.00 | 58 | 1016.7 |
| 20260905221256 | 69 | 99 | 1.0 | 1.0 | 0.00 | 0.00 | 0.00 | 61 | 1016.7 |
| 20260905220752 | 69 | 317 | 1.0 | 1.0 | 0.00 | 0.00 | 0.00 | 60 | 1016.8 |
| 20260905220248 | 69 | 309 | 0.0 | 0.0 | 0.00 | 0.00 | 0.00 | 61 | 1016.9 |
| 20260905215747 | 69 | 304 | 2.0 | 2.0 | 0.00 | 0.00 | 0.00 | 60 | 1016.8 |
| 20260905215243 | 70 | 308 | 1.0 | 1.0 | 0.00 | 0.00 | 0.00 | 58 | 1016.9 |
| 20260905214739 | 71 | 297 | 2.0 | 2.0 | 0.00 | 0.00 | 0.00 | 58 | 1016.8 |
| 20260905214235 | 71 | 311 | 0.0 | 0.0 | 0.00 | 0.00 | 0.00 | 58 | 1016.8 |
| 20260905213730 | 72 | 305 | 0.0 | 1.0 | 0.00 | 0.00 | 0.00 | 60 | 1016.9 |
| 20260905213226 | 71 | 341 | 0.0 | 1.0 | 0.00 | 0.00 | 0.00 | 60 | 1017.0 |
| 20260905212721 | 71 | 312 | 1.0 | 1.0 | 0.00 | 0.00 | 0.00 | 58 | 1017.0 |
| 20260905212219 | 71 | 312 | 1.0 | 1.0 | 0.00 | 0.00 | 0.00 | 59 | 1016.9 |
| 20260905211714 | 70 | 311 | 0.0 | 0.0 | 0.00 | 0.00 | 0.00 | 60 | 1016.9 |
| 20260905211209 | 69 | 303 | 1.0 | 2.0 | 0.00 | 0.00 | 0.00 | 62 | 1017.0 |
| 20260905210706 | 69 | 307 | 1.0 | 1.0 | 0.00 | 0.00 | 0.00 | 62 | 1017.0 |
| 20260905210206 | 70 | 319 | 2.0 | 2.0 | 0.00 | 0.00 | 0.00 | 61 | 1017.0 |
| 20260905205705 | 71 | 300 | 0.0 | 1.0 | 0.00 | 0.00 | 0.00 | 59 | 1017.0 |
| 20260905205205 | 72 | 222 | 2.0 | 2.0 | 0.00 | 0.00 | 0.00 | 58 | 1017.2 |
| 20260905204705 | 72 | 336 | 1.0 | 1.0 | 0.00 | 0.00 | 0.00 | 56 | 1017.1 |
| 20260905204200 | 70 | 314 | 1.0 | 1.0 | 0.00 | 0.00 | 0.00 | 61 | 1017.2 |
| 20260905203654 | 69 | 320 | 0.0 | 0.0 | 0.00 | 0.00 | 0.00 | 61 | 1017.2 |
| 20260905203150 | 69 | 315 | 0.0 | 0.0 | 0.00 | 0.00 | 0.00 | 63 | 1017.2 |
| 20260905202645 | 68 | 303 | 2.0 | 3.0 | 0.00 | 0.00 | 0.00 | 63 | 1017.4 |
| 20260905202140 | 69 | 297 | 1.0 | 1.0 | 0.00 | 0.00 | 0.00 | 65 | 1017.4 |
| 20260905201635 | 68 | 320 | 0.0 | 1.0 | 0.00 | 0.00 | 0.00 | 65 | 1017.2 |
| 20260905201130 | 69 | 297 | 1.0 | 2.0 | 0.00 | 0.00 | 0.00 | 63 | 1017.4 |
| 20260905200626 | 69 | 307 | 0.0 | 0.0 | 0.00 | 0.00 | 0.00 | 64 | 1017.3 |
| 20260905200121 | 68 | 313 | 0.0 | 1.0 | 0.00 | 0.00 | 0.00 | 65 | 1017.5 |
| 20260905195619 | 67 | 311 | 3.0 | 3.0 | 0.00 | 0.00 | 0.00 | 65 | 1017.3 |
| 20260905195115 | 67 | 304 | 1.0 | 1.0 | 0.00 | 0.00 | 0.00 | 67 | 1017.5 |
| 20260905194615 | 67 | 309 | 2.0 | 2.0 | 0.00 | 0.00 | 0.00 | 67 | 1017.4 |
| 20260905194114 | 67 | 308 | 0.0 | 0.0 | 0.00 | 0.00 | 0.00 | 67 | 1017.4 |
| 20260905193609 | 68 | 129 | 3.0 | 3.0 | 0.00 | 0.00 | 0.00 | 67 | 1017.5 |
| 20260905193104 | 67 | 309 | 0.0 | 1.0 | 0.00 | 0.00 | 0.00 | 68 | 1017.7 |
| 20260905192600 | 68 | 271 | 1.0 | 1.0 | 0.00 | 0.00 | 0.00 | 68 | 1017.6 |
| 20260905192055 | 68 | 285 | 1.0 | 1.0 | 0.00 | 0.00 | 0.00 | 68 | 1017.8 |
| 20260905191553 | 68 | 289 | 2.0 | 2.0 | 0.00 | 0.00 | 0.00 | 68 | 1017.8 |
| 20260905191048 | 68 | 49 | 1.0 | 2.0 | 0.00 | 0.00 | 0.00 | 67 | 1017.6 |
| 20260905190546 | 66 | 306 | 1.0 | 1.0 | 0.00 | 0.00 | 0.00 | 71 | 1017.9 |
| 20260905190045 | 66 | 304 | 0.0 | 1.0 | 0.00 | 0.00 | 0.00 | 71 | 1017.8 |
| 20260905185545 | 67 | 146 | 3.0 | 3.0 | 0.00 | 0.00 | 0.00 | 69 | 1017.9 |
| 20260905185044 | 65 | 318 | 1.0 | 1.0 | 0.00 | 0.00 | 0.00 | 75 | 1017.8 |
| 20260905184539 | 66 | 300 | 1.0 | 1.0 | 0.00 | 0.00 | 0.00 | 70 | 1017.8 |
| 20260905184038 | 67 | 304 | 1.0 | 1.0 | 0.00 | 0.00 | 0.00 | 71 | 1018.0 |
| 20260905183538 | 68 | 96 | 3.0 | 3.0 | 0.00 | 0.00 | 0.00 | 68 | 1018.2 |
| 20260905183033 | 68 | 302 | 0.0 | 0.0 | 0.00 | 0.00 | 0.00 | 70 | 1018.3 |
| 20260905182532 | 67 | 284 | 0.0 | 1.0 | 0.00 | 0.00 | 0.00 | 72 | 1018.0 |
| 20260905182027 | 66 | 318 | 1.0 | 2.0 | 0.00 | 0.00 | 0.00 | 72 | 1018.1 |
| 20260905181522 | 66 | 317 | 0.0 | 1.0 | 0.00 | 0.00 | 0.00 | 73 | 1018.3 |
| 20260905181021 | 65 | 296 | 0.0 | 0.0 | 0.00 | 0.00 | 0.00 | 77 | 1018.1 |
| 20260905180516 | 64 | 318 | 3.0 | 3.0 | 0.00 | 0.00 | 0.00 | 75 | 1018.0 |
| 20260905180012 | 65 | 296 | 1.0 | 1.0 | 0.00 | 0.00 | 0.00 | 75 | 1018.4 |
| 20260905175510 | 63 | 310 | 0.0 | 1.0 | 0.00 | 0.00 | 0.00 | 79 | 1018.3 |
| 20260905175006 | 62 | 315 | 0.0 | 0.0 | 0.00 | 0.00 | 0.00 | 80 | 1018.3 |
| 20260905174502 | 63 | 347 | 1.0 | 1.0 | 0.00 | 0.00 | 0.00 | 78 | 1018.2 |
| 20260905173957 | 64 | 301 | 1.0 | 1.0 | 0.00 | 0.00 | 0.00 | 77 | 1018.2 |
| 20260905173453 | 64 | 64 | 2.0 | 2.0 | 0.00 | 0.00 | 0.00 | 76 | 1018.2 |
| 20260905172949 | 63 | 303 | 0.0 | 1.0 | 0.00 | 0.00 | 0.00 | 80 | 1018.3 |
| 20260905172447 | 62 | 305 | 2.0 | 2.0 | 0.00 | 0.00 | 0.00 | 81 | 1018.3 |
| 20260905171942 | 62 | 305 | 0.0 | 1.0 | 0.00 | 0.00 | 0.00 | 85 | 1018.4 |
| 20260905171439 | 60 | 305 | 0.0 | 0.0 | 0.00 | 0.00 | 0.00 | 85 | 1018.2 |
| 20260905170935 | 60 | 303 | 1.0 | 1.0 | 0.00 | 0.00 | 0.00 | 87 | 1018.2 |
| 20260905170431 | 60 | 312 | 1.0 | 1.0 | 0.00 | 0.00 | 0.00 | 88 | 1018.3 |
| 20260905165930 | 60 | 313 | 1.0 | 1.0 | 0.00 | 0.00 | 0.00 | 87 | 1018.4 |
| 20260905165425 | 59 | 311 | 1.0 | 2.0 | 0.00 | 0.00 | 0.00 | 89 | 1018.5 |
| 20260905164921 | 59 | 286 | 1.0 | 1.0 | 0.00 | 0.00 | 0.00 | 91 | 1018.3 |
| 20260905164420 | 59 | 306 | 2.0 | 2.0 | 0.00 | 0.00 | 0.00 | 92 | 1018.5 |
| 20260905163915 | 58 | 312 | 0.0 | 1.0 | 0.00 | 0.00 | 0.00 | 95 | 1018.2 |
| 20260905163412 | 58 | 310 | 2.0 | 2.0 | 0.00 | 0.00 | 0.00 | 98 | 1018.4 |
| 20260905162908 | 57 | 293 | 1.0 | 1.0 | 0.00 | 0.00 | 0.00 | 99 | 1018.4 |
| 20260905162402 | 57 | 308 | 0.0 | 0.0 | 0.00 | 0.00 | 0.00 | 99 | 1018.5 |
| 20260905161857 | 58 | 302 | 1.0 | 1.0 | 0.00 | 0.00 | 0.00 | 99 | 1018.3 |
| 20260905161356 | 58 | 307 | 1.0 | 1.0 | 0.00 | 0.00 | 0.00 | 99 | 1018.4 |
| 20260905160854 | 57 | 304 | 0.0 | 0.0 | 0.00 | 0.00 | 0.00 | 99 | 1018.7 |
| 20260905160349 | 57 | 310 | 1.0 | 1.0 | 0.00 | 0.00 | 0.00 | 99 | 1018.3 |
| 20260905155843 | 57 | 329 | 0.0 | 0.0 | 0.00 | 0.00 | 0.00 | 99 | 1018.5 |
| 20260905155337 | 56 | 329 | 0.0 | 0.0 | 0.00 | 0.00 | 0.00 | 99 | 1018.4 |
| 20260905154836 | 56 | 329 | 0.0 | 0.0 | 0.00 | 0.00 | 0.00 | 99 | 1018.4 |
| 20260905154332 | 56 | 328 | 0.0 | 0.0 | 0.00 | 0.00 | 0.00 | 99 | 1018.6 |
| 20260905153827 | 56 | 328 | 1.0 | 1.0 | 0.00 | 0.00 | 0.00 | 99 | 1018.4 |
| 20260905153324 | 56 | 330 | 0.0 | 0.0 | 0.00 | 0.00 | 0.00 | 99 | 1018.6 |
| 20260905152824 | 57 | 330 | 0.0 | 0.0 | 0.00 | 0.00 | 0.00 | 99 | 1018.4 |
| 20260905152322 | 56 | 330 | 0.0 | 0.0 | 0.00 | 0.00 | 0.00 | 99 | 1018.4 |
| 20260905151818 | 55 | 330 | 0.0 | 0.0 | 0.00 | 0.00 | 0.00 | 99 | 1018.6 |
| 20260905151314 | 55 | 330 | 0.0 | 0.0 | 0.00 | 0.00 | 0.00 | 99 | 1018.4 |
| 20260905150813 | 55 | 330 | 0.0 | 0.0 | 0.00 | 0.00 | 0.00 | 99 | 1018.4 |
| 20260905150308 | 55 | 330 | 0.0 | 0.0 | 0.00 | 0.00 | 0.00 | 99 | 1018.6 |
| 20260905145805 | 55 | 330 | 0.0 | 0.0 | 0.00 | 0.00 | 0.00 | 99 | 1018.4 |
| 20260905145259 | 55 | 330 | 0.0 | 0.0 | 0.00 | 0.00 | 0.00 | 99 | 1018.5 |
| 20260905144758 | 54 | 330 | 0.0 | 0.0 | 0.00 | 0.00 | 0.00 | 99 | 1018.3 |
| 20260905144254 | 54 | 330 | 0.0 | 0.0 | 0.00 | 0.00 | 0.00 | 99 | 1018.4 |
| 20260905143752 | 54 | 330 | 0.0 | 0.0 | 0.00 | 0.00 | 0.00 | 99 | 1018.3 |
| 20260905143247 | 53 | 330 | 0.0 | 0.0 | 0.00 | 0.00 | 0.00 | 99 | 1018.4 |
| 20260905142745 | 53 | 330 | 0.0 | 0.0 | 0.00 | 0.00 | 0.00 | 99 | 1018.4 |
| 20260905142240 | 53 | 330 | 0.0 | 0.0 | 0.00 | 0.00 | 0.00 | 99 | 1018.5 |
| 20260905141736 | 53 | 330 | 0.0 | 0.0 | 0.00 | 0.00 | 0.00 | 99 | 1018.4 |
| 20260905141231 | 53 | 330 | 0.0 | 0.0 | 0.00 | 0.00 | 0.00 | 99 | 1018.3 |
| 20260905140721 | 53 | 330 | 0.0 | 0.0 | 0.00 | 0.00 | 0.00 | 99 | 1018.4 |
| 20260905140220 | 53 | 330 | 0.0 | 0.0 | 0.00 | 0.00 | 0.00 | 99 | 1018.1 |
| 20260905135715 | 52 | 330 | 1.0 | 1.0 | 0.00 | 0.00 | 0.00 | 99 | 1018.2 |
| 20260905135211 | 52 | 330 | 0.0 | 0.0 | 0.00 | 0.00 | 0.00 | 99 | 1018.2 |
| 20260905134710 | 52 | 330 | 0.0 | 0.0 | 0.00 | 0.00 | 0.00 | 99 | 1018.3 |
| 20260905134210 | 52 | 330 | 0.0 | 0.0 | 0.00 | 0.00 | 0.00 | 99 | 1018.2 |
| 20260905133705 | 52 | 330 | 0.0 | 0.0 | 0.00 | 0.00 | 0.00 | 99 | 1018.2 |
| 20260905133200 | 52 | 330 | 0.0 | 0.0 | 0.00 | 0.00 | 0.00 | 99 | 1018.0 |
| 20260905132659 | 53 | 330 | 0.0 | 0.0 | 0.00 | 0.00 | 0.00 | 99 | 1018.2 |
| 20260905132154 | 53 | 330 | 0.0 | 0.0 | 0.00 | 0.00 | 0.00 | 99 | 1018.0 |
| 20260905131649 | 53 | 330 | 0.0 | 0.0 | 0.00 | 0.00 | 0.00 | 99 | 1018.0 |
| 20260905131144 | 53 | 330 | 0.0 | 0.0 | 0.00 | 0.00 | 0.00 | 99 | 1018.1 |
| 20260905130639 | 53 | 330 | 0.0 | 0.0 | 0.00 | 0.00 | 0.00 | 99 | 1017.9 |
| 20260905130138 | 54 | 330 | 0.0 | 0.0 | 0.00 | 0.00 | 0.00 | 99 | 1017.9 |
| 20260905125632 | 54 | 330 | 0.0 | 1.0 | 0.00 | 0.00 | 0.00 | 99 | 1017.9 |
| 20260905125128 | 53 | 330 | 0.0 | 0.0 | 0.00 | 0.00 | 0.00 | 99 | 1017.7 |
| 20260905124625 | 53 | 330 | 0.0 | 0.0 | 0.00 | 0.00 | 0.00 | 99 | 1017.6 |
| 20260905124121 | 53 | 330 | 0.0 | 0.0 | 0.00 | 0.00 | 0.00 | 99 | 1017.7 |
| 20260905123615 | 53 | 330 | 0.0 | 0.0 | 0.00 | 0.00 | 0.00 | 99 | 1017.9 |
| 20260905123113 | 53 | 330 | 0.0 | 0.0 | 0.00 | 0.00 | 0.00 | 99 | 1017.8 |
| 20260905122607 | 53 | 330 | 0.0 | 0.0 | 0.00 | 0.00 | 0.00 | 99 | 1017.9 |
| 20260905122107 | 54 | 330 | 0.0 | 0.0 | 0.00 | 0.00 | 0.00 | 99 | 1017.9 |
| 20260905121601 | 54 | 330 | 0.0 | 0.0 | 0.00 | 0.00 | 0.00 | 99 | 1017.7 |
| 20260905121057 | 54 | 330 | 0.0 | 0.0 | 0.00 | 0.00 | 0.00 | 99 | 1017.7 |
| 20260905120556 | 54 | 330 | 0.0 | 0.0 | 0.00 | 0.00 | 0.00 | 99 | 1017.6 |
| 20260905120051 | 54 | 330 | 0.0 | 0.0 | 0.00 | 0.00 | 0.00 | 99 | 1017.6 |
| 20260905115550 | 54 | 330 | 0.0 | 0.0 | 0.00 | 0.00 | 0.00 | 99 | 1017.9 |
| 20260905115045 | 54 | 330 | 0.0 | 0.0 | 0.00 | 0.00 | 0.00 | 99 | 1017.8 |
| 20260905114544 | 54 | 330 | 0.0 | 0.0 | 0.00 | 0.00 | 0.00 | 99 | 1017.7 |
| 20260905114043 | 54 | 330 | 0.0 | 0.0 | 0.00 | 0.00 | 0.00 | 99 | 1017.7 |
| 20260905113538 | 54 | 330 | 0.0 | 0.0 | 0.00 | 0.00 | 0.00 | 99 | 1017.8 |
| 20260905113034 | 54 | 330 | 0.0 | 0.0 | 0.00 | 0.00 | 0.00 | 99 | 1017.8 |
| 20260905112529 | 54 | 330 | 0.0 | 0.0 | 0.00 | 0.00 | 0.00 | 99 | 1017.6 |
| 20260905112024 | 54 | 330 | 0.0 | 0.0 | 0.00 | 0.00 | 0.00 | 99 | 1017.6 |
| 20260905111519 | 54 | 330 | 0.0 | 0.0 | 0.00 | 0.00 | 0.00 | 99 | 1017.7 |
| 20260905111018 | 54 | 330 | 0.0 | 0.0 | 0.00 | 0.00 | 0.00 | 99 | 1017.5 |
| 20260905110518 | 54 | 330 | 0.0 | 0.0 | 0.00 | 0.00 | 0.00 | 99 | 1017.5 |
| 20260905110013 | 53 | 330 | 0.0 | 0.0 | 0.00 | 0.00 | 0.00 | 99 | 1017.6 |
| 20260905105507 | 53 | 330 | 0.0 | 0.0 | 0.00 | 0.00 | 0.00 | 99 | 1017.5 |
| 20260905105006 | 53 | 330 | 0.0 | 0.0 | 0.00 | 0.00 | 0.00 | 99 | 1017.7 |
| 20260905104503 | 53 | 330 | 0.0 | 0.0 | 0.00 | 0.00 | 0.00 | 99 | 1017.8 |
| 20260905103957 | 53 | 330 | 0.0 | 0.0 | 0.00 | 0.00 | 0.00 | 99 | 1017.6 |
| 20260905103452 | 54 | 330 | 0.0 | 0.0 | 0.00 | 0.00 | 0.00 | 99 | 1017.7 |
| 20260905102948 | 54 | 330 | 0.0 | 0.0 | 0.00 | 0.00 | 0.00 | 99 | 1017.7 |
| 20260905102444 | 54 | 330 | 0.0 | 0.0 | 0.00 | 0.00 | 0.00 | 99 | 1017.7 |
| 20260905101939 | 54 | 330 | 0.0 | 0.0 | 0.00 | 0.00 | 0.00 | 99 | 1017.9 |
| 20260905101438 | 54 | 330 | 0.0 | 0.0 | 0.00 | 0.00 | 0.00 | 99 | 1017.7 |
| 20260905100937 | 54 | 330 | 0.0 | 0.0 | 0.00 | 0.00 | 0.00 | 99 | 1017.8 |
| 20260905100433 | 54 | 330 | 0.0 | 0.0 | 0.00 | 0.00 | 0.00 | 99 | 1017.7 |
| 20260905095932 | 55 | 330 | 0.0 | 0.0 | 0.00 | 0.00 | 0.00 | 99 | 1017.7 |
| 20260905095432 | 54 | 330 | 0.0 | 0.0 | 0.00 | 0.00 | 0.00 | 99 | 1017.9 |
| 20260905094927 | 54 | 330 | 0.0 | 0.0 | 0.00 | 0.00 | 0.00 | 99 | 1017.8 |
| 20260905094423 | 54 | 330 | 0.0 | 0.0 | 0.00 | 0.00 | 0.00 | 99 | 1017.7 |
| 20260905093922 | 55 | 330 | 0.0 | 0.0 | 0.00 | 0.00 | 0.00 | 99 | 1017.8 |
| 20260905093418 | 55 | 330 | 0.0 | 0.0 | 0.00 | 0.00 | 0.00 | 99 | 1017.7 |
| 20260905092913 | 55 | 330 | 0.0 | 0.0 | 0.00 | 0.00 | 0.00 | 99 | 1017.4 |
| 20260905092408 | 55 | 330 | 0.0 | 0.0 | 0.00 | 0.00 | 0.00 | 99 | 1017.6 |
| 20260905091903 | 55 | 330 | 0.0 | 0.0 | 0.00 | 0.00 | 0.00 | 99 | 1017.6 |
| 20260905091403 | 55 | 330 | 0.0 | 0.0 | 0.00 | 0.00 | 0.00 | 99 | 1017.6 |
| 20260905090902 | 55 | 330 | 0.0 | 0.0 | 0.00 | 0.00 | 0.00 | 99 | 1017.5 |
| 20260905090358 | 55 | 330 | 0.0 | 0.0 | 0.00 | 0.00 | 0.00 | 99 | 1017.5 |
| 20260905085856 | 54 | 330 | 0.0 | 0.0 | 0.00 | 0.00 | 0.00 | 99 | 1017.6 |
| 20260905085351 | 54 | 330 | 0.0 | 0.0 | 0.00 | 0.00 | 0.00 | 99 | 1017.6 |
| 20260905084848 | 54 | 330 | 0.0 | 0.0 | 0.00 | 0.00 | 0.00 | 99 | 1017.5 |
| 20260905084346 | 54 | 330 | 0.0 | 0.0 | 0.00 | 0.00 | 0.00 | 99 | 1017.4 |
| 20260905083841 | 54 | 330 | 0.0 | 0.0 | 0.00 | 0.00 | 0.00 | 99 | 1017.4 |
| 20260905083337 | 54 | 330 | 0.0 | 0.0 | 0.00 | 0.00 | 0.00 | 99 | 1017.4 |
| 20260905082832 | 54 | 330 | 0.0 | 0.0 | 0.00 | 0.00 | 0.00 | 99 | 1017.4 |
| 20260905082328 | 54 | 330 | 0.0 | 0.0 | 0.00 | 0.00 | 0.00 | 99 | 1017.4 |
| 20260905081823 | 54 | 330 | 0.0 | 0.0 | 0.00 | 0.00 | 0.00 | 99 | 1017.3 |
| 20260905081318 | 54 | 330 | 0.0 | 0.0 | 0.00 | 0.00 | 0.00 | 99 | 1017.4 |
| 20260905080817 | 55 | 330 | 0.0 | 0.0 | 0.00 | 0.00 | 0.00 | 99 | 1017.5 |
| 20260905080312 | 55 | 330 | 0.0 | 0.0 | 0.00 | 0.00 | 0.00 | 99 | 1017.3 |
| 20260905075811 | 55 | 330 | 0.0 | 0.0 | 0.00 | 0.00 | 0.00 | 99 | 1017.4 |
| 20260905075311 | 55 | 330 | 0.0 | 0.0 | 0.00 | 0.00 | 0.00 | 99 | 1017.3 |
| 20260905074809 | 55 | 330 | 0.0 | 0.0 | 0.00 | 0.00 | 0.00 | 99 | 1017.4 |
| 20260905074306 | 55 | 330 | 0.0 | 0.0 | 0.00 | 0.00 | 0.00 | 99 | 1017.0 |
| 20260905073801 | 55 | 330 | 0.0 | 0.0 | 0.00 | 0.00 | 0.00 | 99 | 1017.3 |
| 20260905073256 | 55 | 330 | 0.0 | 0.0 | 0.00 | 0.00 | 0.00 | 99 | 1017.4 |
| 20260905072756 | 55 | 330 | 0.0 | 0.0 | 0.00 | 0.00 | 0.00 | 99 | 1017.4 |
| 20260905072251 | 55 | 330 | 0.0 | 0.0 | 0.00 | 0.00 | 0.00 | 99 | 1017.3 |
| 20260905071748 | 55 | 330 | 0.0 | 0.0 | 0.00 | 0.00 | 0.00 | 99 | 1017.2 |
| 20260905071243 | 55 | 330 | 0.0 | 0.0 | 0.00 | 0.00 | 0.00 | 99 | 1017.4 |
| 20260905070738 | 55 | 330 | 0.0 | 0.0 | 0.00 | 0.00 | 0.00 | 99 | 1017.2 |
| 20260905070235 | 55 | 330 | 0.0 | 0.0 | 0.00 | 0.00 | 0.00 | 99 | 1017.1 |
| 20260905065733 | 55 | 330 | 0.0 | 0.0 | 0.00 | 0.21 | 0.21 | 99 | 1017.2 |
| 20260905065227 | 55 | 330 | 0.0 | 0.0 | 0.00 | 0.21 | 0.21 | 99 | 1016.9 |
| 20260905064722 | 55 | 330 | 0.0 | 0.0 | 0.00 | 0.21 | 0.21 | 99 | 1016.8 |
| 20260905064218 | 55 | 334 | 0.0 | 0.0 | 0.00 | 0.21 | 0.21 | 99 | 1016.9 |
| 20260905063716 | 55 | 334 | 0.0 | 0.0 | 0.00 | 0.21 | 0.21 | 99 | 1017.0 |
| 20260905063213 | 55 | 332 | 0.0 | 0.0 | 0.00 | 0.21 | 0.21 | 99 | 1016.7 |
| 20260905062708 | 54 | 332 | 0.0 | 0.0 | 0.00 | 0.21 | 0.21 | 99 | 1016.9 |
| 20260905062208 | 54 | 332 | 0.0 | 0.0 | 0.00 | 0.21 | 0.21 | 99 | 1016.8 |
| 20260905061702 | 54 | 332 | 0.0 | 0.0 | 0.00 | 0.21 | 0.21 | 99 | 1016.7 |
| 20260905061156 | 54 | 332 | 0.0 | 0.0 | 0.00 | 0.21 | 0.21 | 99 | 1016.7 |
| 20260905060652 | 55 | 332 | 0.0 | 0.0 | 0.00 | 0.21 | 0.21 | 99 | 1016.4 |
| 20260905060148 | 55 | 332 | 0.0 | 0.0 | 0.00 | 0.21 | 0.21 | 99 | 1016.5 |
| 20260905055646 | 55 | 332 | 0.0 | 0.0 | 0.00 | 0.21 | 0.21 | 99 | 1016.5 |
| 20260905055142 | 55 | 332 | 0.0 | 0.0 | 0.00 | 0.21 | 0.21 | 99 | 1016.6 |
| 20260905054637 | 55 | 332 | 0.0 | 0.0 | 0.00 | 0.21 | 0.21 | 99 | 1016.7 |
| 20260905054133 | 55 | 332 | 0.0 | 0.0 | 0.00 | 0.21 | 0.21 | 99 | 1016.6 |
| 20260905053633 | 55 | 332 | 0.0 | 0.0 | 0.00 | 0.21 | 0.21 | 99 | 1016.8 |
| 20260905053128 | 55 | 332 | 0.0 | 0.0 | 0.00 | 0.21 | 0.21 | 99 | 1016.6 |
| 20260905052627 | 55 | 332 | 0.0 | 0.0 | 0.00 | 0.21 | 0.21 | 99 | 1016.9 |
| 20260905052122 | 55 | 332 | 0.0 | 0.0 | 0.00 | 0.21 | 0.21 | 99 | 1016.9 |
| 20260905051617 | 55 | 332 | 0.0 | 0.0 | 0.00 | 0.21 | 0.21 | 99 | 1016.7 |
| 20260905051114 | 55 | 332 | 0.0 | 0.0 | 0.00 | 0.21 | 0.21 | 99 | 1016.9 |
| 20260905050610 | 55 | 332 | 0.0 | 0.0 | 0.00 | 0.21 | 0.21 | 99 | 1016.6 |
| 20260905050106 | 55 | 332 | 0.0 | 0.0 | 0.00 | 0.21 | 0.21 | 99 | 1016.6 |
| 20260905045601 | 55 | 332 | 0.0 | 0.0 | 0.00 | 0.21 | 0.21 | 99 | 1016.6 |
| 20260905045056 | 55 | 332 | 0.0 | 0.0 | 0.00 | 0.21 | 0.21 | 99 | 1016.4 |
| 20260905044556 | 54 | 332 | 0.0 | 0.0 | 0.00 | 0.21 | 0.21 | 99 | 1016.5 |
| 20260905044050 | 54 | 332 | 0.0 | 0.0 | 0.00 | 0.21 | 0.21 | 99 | 1016.6 |
| 20260905043549 | 54 | 332 | 0.0 | 0.0 | 0.00 | 0.21 | 0.21 | 99 | 1016.4 |
| 20260905043045 | 54 | 332 | 0.0 | 0.0 | 0.00 | 0.21 | 0.21 | 99 | 1016.6 |
| 20260905042544 | 54 | 332 | 0.0 | 0.0 | 0.00 | 0.21 | 0.21 | 99 | 1016.4 |
| 20260905042039 | 54 | 332 | 0.0 | 0.0 | 0.00 | 0.21 | 0.21 | 99 | 1016.2 |
| 20260905041534 | 54 | 332 | 0.0 | 0.0 | 0.00 | 0.21 | 0.21 | 99 | 1016.6 |
| 20260905041030 | 54 | 332 | 0.0 | 0.0 | 0.00 | 0.21 | 0.21 | 99 | 1016.5 |
| 20260905040529 | 54 | 332 | 0.0 | 0.0 | 0.00 | 0.21 | 0.21 | 99 | 1016.3 |
| 20260905040028 | 54 | 332 | 0.0 | 0.0 | 0.00 | 0.21 | 0.21 | 99 | 1016.2 |
| 20260905035523 | 54 | 332 | 0.0 | 0.0 | 0.00 | 0.21 | 0.21 | 99 | 1016.2 |
| 20260905035020 | 55 | 332 | 0.0 | 0.0 | 0.00 | 0.21 | 0.21 | 99 | 1016.3 |
| 20260905034516 | 55 | 332 | 0.0 | 0.0 | 0.00 | 0.21 | 0.21 | 99 | 1016.0 |
| 20260905034015 | 55 | 332 | 0.0 | 0.0 | 0.00 | 0.21 | 0.21 | 99 | 1016.1 |
| 20260905033509 | 55 | 332 | 0.0 | 0.0 | 0.00 | 0.21 | 0.21 | 99 | 1016.1 |
| 20260905033005 | 56 | 332 | 0.0 | 0.0 | 0.00 | 0.21 | 0.21 | 99 | 1016.1 |
| 20260905032500 | 56 | 332 | 0.0 | 0.0 | 0.00 | 0.21 | 0.21 | 99 | 1016.3 |
| 20260905031954 | 56 | 332 | 0.0 | 0.0 | 0.00 | 0.21 | 0.21 | 99 | 1016.0 |
| 20260905031450 | 56 | 332 | 0.0 | 0.0 | 0.00 | 0.21 | 0.21 | 99 | 1016.0 |
| 20260905030945 | 56 | 332 | 0.0 | 0.0 | 0.00 | 0.21 | 0.21 | 99 | 1016.0 |
| 20260905030441 | 56 | 332 | 0.0 | 0.0 | 0.00 | 0.21 | 0.21 | 99 | 1015.8 |
| 20260905025939 | 56 | 332 | 0.0 | 0.0 | 0.00 | 0.21 | 0.21 | 99 | 1015.8 |
| 20260905025435 | 57 | 332 | 0.0 | 0.0 | 0.00 | 0.21 | 0.21 | 99 | 1016.0 |
| 20260905024932 | 57 | 332 | 0.0 | 0.0 | 0.00 | 0.21 | 0.21 | 99 | 1015.9 |
| 20260905024432 | 57 | 332 | 0.0 | 0.0 | 0.00 | 0.21 | 0.21 | 98 | 1015.7 |
| 20260905023927 | 57 | 332 | 0.0 | 0.0 | 0.00 | 0.21 | 0.21 | 98 | 1015.8 |
| 20260905023422 | 58 | 332 | 0.0 | 0.0 | 0.00 | 0.21 | 0.21 | 97 | 1015.8 |
| 20260905022921 | 58 | 332 | 0.0 | 0.0 | 0.00 | 0.21 | 0.21 | 96 | 1015.8 |
| 20260905022417 | 58 | 332 | 0.0 | 0.0 | 0.00 | 0.21 | 0.21 | 96 | 1015.9 |
| 20260905021912 | 59 | 332 | 0.0 | 0.0 | 0.00 | 0.21 | 0.21 | 96 | 1015.9 |
| 20260905021412 | 59 | 332 | 0.0 | 0.0 | 0.00 | 0.21 | 0.21 | 95 | 1015.7 |
| 20260905020907 | 59 | 332 | 0.0 | 0.0 | 0.00 | 0.21 | 0.21 | 95 | 1015.8 |
| 20260905020407 | 59 | 332 | 0.0 | 0.0 | 0.00 | 0.21 | 0.21 | 94 | 1015.9 |
| 20260905015906 | 60 | 332 | 0.0 | 0.0 | 0.00 | 0.21 | 0.21 | 94 | 1015.7 |
| 20260905015405 | 60 | 332 | 0.0 | 0.0 | 0.00 | 0.21 | 0.21 | 94 | 1015.7 |
| 20260905014904 | 60 | 285 | 0.0 | 0.0 | 0.00 | 0.21 | 0.21 | 94 | 1015.5 |
| 20260905014400 | 60 | 299 | 0.0 | 0.0 | 0.00 | 0.21 | 0.21 | 94 | 1015.4 |
| 20260905013855 | 60 | 299 | 0.0 | 0.0 | 0.00 | 0.21 | 0.21 | 95 | 1015.4 |
| 20260905013351 | 60 | 299 | 0.0 | 0.0 | 0.00 | 0.21 | 0.21 | 95 | 1015.5 |
| 20260905012846 | 60 | 299 | 0.0 | 0.0 | 0.00 | 0.21 | 0.21 | 95 | 1015.3 |
| 20260905012341 | 60 | 299 | 0.0 | 0.0 | 0.00 | 0.21 | 0.21 | 96 | 1015.4 |
| 20260905011838 | 60 | 299 | 0.0 | 0.0 | 0.00 | 0.21 | 0.21 | 96 | 1015.3 |
| 20260905011334 | 60 | 299 | 0.0 | 0.0 | 0.00 | 0.21 | 0.21 | 95 | 1015.2 |
| 20260905010829 | 60 | 299 | 0.0 | 0.0 | 0.00 | 0.21 | 0.21 | 95 | 1015.4 |
| 20260905010324 | 60 | 299 | 0.0 | 0.0 | 0.00 | 0.21 | 0.21 | 96 | 1015.2 |
| 20260905005820 | 60 | 299 | 0.0 | 0.0 | 0.00 | 0.21 | 0.21 | 96 | 1015.1 |
| 20260905005316 | 60 | 299 | 0.0 | 0.0 | 0.00 | 0.21 | 0.21 | 95 | 1015.2 |
| 20260905004810 | 60 | 298 | 0.0 | 0.0 | 0.00 | 0.21 | 0.21 | 95 | 1015.2 |
| 20260905004305 | 60 | 298 | 0.0 | 0.0 | 0.00 | 0.21 | 0.21 | 95 | 1015.1 |
| 20260905003800 | 60 | 298 | 0.0 | 0.0 | 0.00 | 0.21 | 0.21 | 95 | 1015.2 |
| 20260905003256 | 61 | 300 | 0.0 | 0.0 | 0.00 | 0.21 | 0.21 | 94 | 1015.1 |
| 20260905002752 | 61 | 299 | 0.0 | 0.0 | 0.00 | 0.21 | 0.21 | 94 | 1015.1 |
| 20260905002251 | 62 | 316 | 0.0 | 0.0 | 0.00 | 0.21 | 0.21 | 95 | 1015.2 |
| 20260905001746 | 62 | 316 | 0.0 | 0.0 | 0.00 | 0.21 | 0.21 | 95 | 1015.3 |
| 20260905001245 | 61 | 316 | 0.0 | 0.0 | 0.00 | 0.21 | 0.21 | 94 | 1014.9 |
| 20260905000741 | 61 | 316 | 0.0 | 0.0 | 0.00 | 0.21 | 0.21 | 94 | 1015.2 |
| 20260905000237 | 61 | 316 | 0.0 | 0.0 | 0.00 | 0.21 | 0.21 | 93 | 1015.0 |
| 20260904235732 | 61 | 316 | 0.0 | 0.0 | 0.00 | 0.21 | 0.21 | 93 | 1015.3 |
| 20260904235226 | 61 | 316 | 0.0 | 0.0 | 0.00 | 0.21 | 0.21 | 92 | 1015.2 |
| 20260904234721 | 61 | 316 | 0.0 | 0.0 | 0.00 | 0.21 | 0.21 | 92 | 1015.2 |
| 20260904234216 | 61 | 316 | 0.0 | 0.0 | 0.00 | 0.21 | 0.21 | 94 | 1015.2 |
| 20260904233712 | 61 | 303 | 0.0 | 0.0 | 0.00 | 0.21 | 0.21 | 93 | 1015.1 |
| 20260904233208 | 61 | 303 | 0.0 | 0.0 | 0.00 | 0.21 | 0.21 | 93 | 1015.5 |